EW9774 Weather Reports


Display with metric or nautical units.
time (UTC)temp
F
wind
direction
speed
MPH
gust
MPH
rain 1hr
in
rain 24hr
in
rain mn
in
humidity
%
barometer
mb
20200401113025 33 70 0.0 0.0 0.00 0.00 0.00 97 1.0
20200401111527 33 121 0.0 0.0 0.00 0.00 0.00 97 1.0
20200401110023 32 129 0.0 0.0 0.00 0.00 0.00 97 1.0
20200401104528 32 108 0.0 0.0 0.00 0.00 0.00 97 1.0
20200401103028 32 90 2.0 0.0 0.00 0.00 0.00 97 1.0
20200401101523 32 167 1.0 0.0 0.00 0.00 0.00 97 1.0
20200401100027 32 67 1.0 0.0 0.00 0.00 0.00 98 1.0
20200401094526 32 59 0.0 0.0 0.00 0.00 0.00 97 1.0
20200401093028 32 156 0.0 0.0 0.00 0.00 0.00 97 1.0
20200401090027 32 89 1.0 0.0 0.00 0.00 0.00 97 1.0
20200401084526 31 292 1.0 0.0 0.00 0.00 0.00 97 1.0
20200401083027 32 292 2.0 0.0 0.00 0.00 0.00 97 1.0
20200401081528 33 292 0.0 0.0 0.00 0.00 0.00 97 1.0
20200401080023 33 307 0.0 0.0 0.00 0.00 0.00 96 1.0
20200401074525 33 337 0.0 0.0 0.00 0.00 0.00 96 1.0
20200401073022 33 337 0.0 0.0 0.00 0.00 0.00 96 1.0
20200401070026 34 14 0.0 0.0 0.00 0.00 0.00 95 1.0
20200401064525 35 16 2.0 0.0 0.00 0.00 0.00 95 1.0
20200401063027 36 180 3.0 0.0 0.00 0.00 0.00 95 1.0
20200401061526 36 251 2.0 0.0 0.00 0.00 0.00 95 1.0
20200401060027 37 173 3.0 0.0 0.00 0.00 0.00 94 1.0
20200401054526 37 289 2.0 0.0 0.00 0.00 0.00 94 1.0
20200401053030 37 296 3.0 0.0 0.00 0.00 0.00 94 1.0
20200401051528 37 313 2.0 0.0 0.00 0.00 0.00 94 1.0
20200401050026 37 307 3.0 0.0 0.00 0.00 0.00 93 1.0
20200401044526 37 297 2.0 0.0 0.00 0.00 0.00 93 1.0
20200401043028 37 292 4.0 0.0 0.00 0.00 0.00 93 1.0
20200401041523 37 207 1.0 0.0 0.00 0.00 0.00 91 1.0
20200401040025 37 163 0.0 0.0 0.00 0.00 0.00 90 1.0
20200401034525 38 157 0.0 0.0 0.00 0.00 0.00 89 1.0
20200401033028 38 172 2.0 0.0 0.00 0.00 0.00 89 1.0
20200401031524 38 178 3.0 0.0 0.00 0.00 0.00 90 1.0
20200401030025 38 98 0.0 0.0 0.00 0.00 0.00 91 1.0
20200401024524 38 118 0.0 0.0 0.00 0.00 0.00 90 1.0
20200401023024 38 136 1.0 0.0 0.00 0.00 0.00 90 1.0
20200401021528 38 141 1.0 0.0 0.00 0.00 0.00 89 1.0
20200401020029 38 28 2.0 0.0 0.00 0.00 0.00 88 1.0
20200401014525 38 341 1.0 0.0 0.00 0.00 0.00 87 1.0
20200401013027 39 334 4.0 0.0 0.00 0.00 0.00 83 1.0
20200401011527 42 307 7.0 0.0 0.00 0.00 0.00 77 1.0
20200401010026 43 304 4.0 0.0 0.00 0.00 0.00 74 1.0
20200401004523 45 292 5.0 0.0 0.00 0.00 0.00 72 1.0
20200401003027 44 269 4.0 0.0 0.00 0.00 0.00 74 1.0
20200401001527 43 195 6.0 0.0 0.00 0.00 0.00 74 1.0
20200401000033 44 214 6.0 0.0 0.00 0.00 0.00 75 1.0
20200331234529 45 197 6.0 0.0 0.00 0.00 0.00 75 1.0
20200331233027 44 175 6.0 0.0 0.00 0.00 0.00 78 1.0
20200331231531 43 193 5.0 0.0 0.00 0.00 0.00 81 1.0
20200331230028 42 201 6.0 0.0 0.00 0.00 0.00 79 1.0
20200331224524 45 287 10.0 0.0 0.00 0.00 0.00 70 1.0
20200331223026 47 264 8.0 0.0 0.00 0.00 0.00 64 1.0
20200331221528 47 182 11.0 0.0 0.00 0.00 0.00 65 1.0
20200331220027 49 196 10.0 0.0 0.00 0.00 0.00 63 1.0
20200331214529 49 235 8.0 0.0 0.00 0.00 0.00 66 1.0
20200331213025 48 257 8.0 0.0 0.00 0.00 0.00 66 1.0
20200331211531 48 204 6.0 0.0 0.00 0.00 0.00 67 1.0
20200331210024 46 275 7.0 0.0 0.00 0.00 0.00 76 1.0
20200331204522 43 182 6.0 0.0 0.00 0.00 0.00 79 1.0
20200331203029 42 187 7.0 0.0 0.00 0.00 0.00 80 1.0
20200331201529 42 295 4.0 0.0 0.00 0.00 0.00 82 1.0
20200331200025 43 299 7.0 0.0 0.00 0.00 0.00 75 1.0
20200331194524 45 270 6.0 0.0 0.00 0.00 0.00 71 1.0
20200331193027 45 11 4.0 0.0 0.00 0.00 0.00 70 1.0
20200331191530 46 143 5.0 0.0 0.00 0.00 0.00 70 1.0
20200331190023 45 150 5.0 0.0 0.00 0.00 0.00 73 1.0
20200331184524 46 185 7.0 0.0 0.00 0.00 0.00 75 1.0
20200331183027 45 271 5.0 0.0 0.00 0.00 0.00 84 1.0
20200331181524 42 8 1.0 0.0 0.00 0.00 0.00 87 1.0
20200331180027 42 66 1.0 0.0 0.00 0.00 0.00 90 1.0
20200331174523 39 156 1.0 0.0 0.00 0.00 0.00 93 1.0
20200331173027 37 155 2.0 0.0 0.00 0.00 0.00 94 1.0
20200331171528 36 147 4.0 0.0 0.00 0.00 0.00 94 1.0
20200331170031 36 156 5.0 0.0 0.00 0.00 0.00 93 1.0
20200331164525 37 169 4.0 0.0 0.00 0.00 0.00 94 1.0
20200331163023 37 275 3.0 0.0 0.00 0.00 0.00 95 1.0
20200331161528 36 299 6.0 0.0 0.00 0.00 0.00 95 1.0
20200331160027 37 3 4.0 0.0 0.00 0.00 0.00 95 1.0
20200331154524 38 346 1.0 0.0 0.00 0.00 0.00 97 1.0
20200331153025 38 196 0.0 0.0 0.00 0.00 0.00 97 1.0
20200331151528 37 180 0.0 0.0 0.00 0.00 0.00 97 1.0
20200331150029 37 180 0.0 0.0 0.00 0.00 0.00 97 1.0
20200331144525 37 180 0.0 0.0 0.00 0.00 0.00 97 1.0
20200331143025 37 205 2.0 0.0 0.00 0.00 0.00 97 1.0
20200331141527 36 273 2.0 0.0 0.00 0.00 0.00 97 1.0
20200331140024 36 180 1.0 0.0 0.00 0.00 0.00 97 1.0
20200331134528 36 180 0.0 0.0 0.00 0.00 0.00 97 1.0
20200331133026 36 180 0.0 0.0 0.00 0.00 0.00 97 1.0
20200331131526 36 180 0.0 0.0 0.00 0.00 0.00 97 1.0
20200331130026 36 180 0.0 0.0 0.00 0.00 0.00 97 1.0
20200331124523 36 180 0.0 0.0 0.00 0.00 0.00 97 1.0
20200331123028 36 180 0.0 0.0 0.00 0.00 0.00 97 1.0
20200331121528 36 203 1.0 0.0 0.00 0.00 0.00 97 1.0
20200331120027 36 292 2.0 0.0 0.00 0.00 0.00 97 1.0
20200331114526 36 194 1.0 0.0 0.00 0.00 0.00 97 1.0